AO-07 1 07530U 74089B 26037.60691477 -.00000047 00000-0 -81467-6 0 9996 2 07530 101.9972 49.4633 0012261 21.7009 99.2161 12.53695644344156 UO-11 1 14781U 84021B 26037.85845321 .00002674 00000-0 28024-3 0 9998 2 14781 97.7899 5.0500 0006043 252.1256 107.9303 14.90390112237711 AO-27 1 22825U 93061C 26037.73002285 .00000176 00000-0 84060-4 0 9999 2 22825 98.7049 105.1062 0009346 120.2141 239.9968 14.30902479688340 FO-29 1 24278U 96046B 26037.59505044 -.00000012 00000-0 21063-4 0 9998 2 24278 98.5422 264.2148 0350843 75.3047 288.6702 13.53266622455509 GO-32 1 25397U 98043D 26037.83257223 .00000134 00000-0 77914-4 0 9990 2 25397 98.9987 27.3587 0000769 178.8085 181.3095 14.24397111432772 ISS 1 25544U 98067A 26037.53476766 .00011792 00000-0 22585-3 0 9997 2 25544 51.6316 226.3678 0011132 70.9201 289.2992 15.48439420551502 NO-44 1 26931U 01043C 26037.82524980 .00000244 00000-0 12204-3 0 9997 2 26931 67.0487 221.4336 0007041 266.3738 93.6558 14.31894117271783 SO-50 1 27607U 02058C 26037.72656845 .00002556 00000-0 31953-3 0 9990 2 27607 64.5528 172.5215 0074442 286.2813 73.0114 14.82657531245119 CO-55 1 27844U 03031E 26037.58262467 .00000483 00000-0 22815-3 0 9996 2 27844 98.6775 47.7702 0009212 198.7872 161.2968 14.24239444173081 CO-57 1 27848U 03031J 26037.57641855 .00000402 00000-0 19568-3 0 9993 2 27848 98.6804 47.5817 0008777 217.9192 142.1369 14.23538553172799 RS-22 1 27939U 03042A 26037.89944704 .00002543 00000-0 40237-3 0 9995 2 27939 98.3400 218.6108 0010755 327.3396 169.1980 14.73166147196362 CO-58 1 28895U 05043F 26037.38433641 .00002857 00000-0 46108-3 0 9998 2 28895 98.2781 190.4312 0013188 259.5978 100.3743 14.72176382 82509 CO-65 1 32785U 08021C 26037.86137088 .00008550 00000-0 56021-3 0 9990 2 32785 97.8167 16.8042 0011243 107.8445 252.4009 15.07916097965542 CO-66 1 32791U 08021J 26037.42930365 .00025036 00000-0 92558-3 0 9991 2 32791 97.7495 29.6032 0005385 69.2409 290.9405 15.27690520967297 RS-30 1 32953U 08025A 26037.88457366 .00000008 00000-0 -12134-4 0 9996 2 32953 82.4988 76.4971 0018526 233.5571 126.3801 12.43174793803503 SRMSAT 1 37841U 11058D 26037.29582517 .00000512 00000-0 13390-3 0 9992 2 37841 19.9712 131.7097 0011564 203.5607 189.1597 14.11535751739307 ZACUBE-1 1 39417U 13066B 26037.84709542 .00009144 00000-0 72817-3 0 9993 2 39417 97.8176 359.5257 0040881 326.5593 33.3049 14.99939853661188 Delfi-N3xt 1 39428U 13066N 26037.72510894 .00012237 00000-0 11141-2 0 9991 2 39428 97.8351 318.3452 0075461 280.9365 78.3371 14.93136935655147 GOMX-1 1 39430U 13066Q 26037.69701833 .00003966 00000-0 60170-3 0 9991 2 39430 97.6577 246.3331 0130522 136.1001 225.0666 14.68964812650758 LO-74 1 39440U 13066AA 26037.79615627 .00006647 00000-0 62887-3 0 9994 2 39440 97.8775 346.4411 0060814 99.2482 261.5622 14.92581267657536 AO-73 1 39444U 13066AE 26037.84419360 .00012699 00000-0 83269-3 0 9991 2 39444 97.8149 6.8858 0035867 288.2356 71.4968 15.07294695660018 DTUSAT-2 1 40030U 14033W 26036.91887623 .00014656 00000-0 83499-3 0 9997 2 40030 98.0818 26.5564 0007267 335.5564 24.5319 15.12903997632825 EO-80 1 40032U 14033Y 26037.85144745 .00012161 00000-0 69105-3 0 9991 2 40032 98.0703 26.8615 0005760 257.0043 103.0544 15.13051877632944 LILACSAT-2 1 40908U 15049K 26037.86303593 .00027975 00000-0 55689-3 0 9991 2 40908 97.4855 70.0381 0007900 20.1801 339.9759 15.46856626575571 Horyu-4 1 41340U 16012D 26037.82351953 .00082782 00000-0 10609-2 0 9991 2 41340 30.9917 283.0212 0001889 69.5618 290.5236 15.57790702550282 Lapan A3 1 41603U 16040E 26037.87377051 .00006354 00000-0 20694-3 0 9993 2 41603 97.1464 38.4180 0012267 117.9821 242.2664 15.32103818534851 CAS-2T 1 41847U 16066G 26037.74165630 .00002588 00000-0 37099-3 0 9997 2 41847 98.3944 114.9248 0343383 165.0835 196.0801 14.44356466485964 TechnoSat 1 42829U 17042E 26036.96146433 .00006002 00000-0 43729-3 0 9998 2 42829 97.4098 199.8241 0018025 176.4802 183.6554 15.03978372466971 AO-91 1 43017U 17073E 26037.59297896 .00011848 00000-0 53963-3 0 9997 2 43017 97.4895 267.5530 0158879 58.9384 302.7331 15.10166786445667 S-Net D 1 43186U 18014G 26037.70603905 .00007483 00000-0 40142-3 0 9990 2 43186 97.5461 303.3719 0010209 106.2928 253.9427 15.15203683438991 S-Net B 1 43187U 18014H 26037.71503916 .00007580 00000-0 40680-3 0 9998 2 43187 97.5467 303.3633 0011005 102.5289 257.7175 15.15177348438997 S-Net A 1 43188U 18014J 26037.70551733 .00007484 00000-0 40135-3 0 9996 2 43188 97.5476 303.5393 0010814 103.1762 257.0677 15.15209455438998 S-Net C 1 43189U 18014K 26037.71823456 .00007514 00000-0 40326-3 0 9998 2 43189 97.5494 303.6062 0012344 97.2764 262.9871 15.15169491437544 Ten-Koh 1 43677U 18084G 26037.47134042 .00004990 00000-0 38314-3 0 9995 2 43677 98.0726 224.3594 0009303 196.3783 163.7142 15.02225264396531 PO-101 1 43678U 18084H 26037.83399306 .00001912 00000-0 15974-3 0 9990 2 43678 98.1069 228.6031 0008464 222.9528 137.1034 14.99808731396677 QO-100 1 43700U 18090A 26037.77360272 .00000146 00000-0 00000 0 0 9994 2 43700 0.0144 115.3575 0002361 248.4143 77.3664 1.00271201 26364 MinXSS-2 1 43758U 18099A 26037.70680269 .00034450 00000-0 91269-3 0 9996 2 43758 97.4692 110.9449 0008840 21.9636 338.1986 15.38235974394013 AO-95 1 43770U 18099N 26037.12615980 .00018282 00000-0 76568-3 0 9994 2 43770 97.4571 98.0317 0010617 90.5311 269.7143 15.23545043393243 SNUSat 2 1 43782U 18099AA 26037.65701782 .00011320 00000-0 53442-3 0 9993 2 43782 97.4255 93.1263 0011560 39.7308 320.4771 15.19545992393194 SnugLite 1 43784U 18099AC 26037.09880531 .00019027 00000-0 78814-3 0 9995 2 43784 97.4074 92.8367 0003853 51.8969 308.2615 15.23951925393339 ITASat 1 1 43786U 18099AE 26037.71490097 .00009166 00000-0 46382-3 0 9998 2 43786 97.4229 91.8724 0014557 88.3639 271.9261 15.17147260393112 EAGLET 1 1 43790U 18099AJ 26037.64739151 .00005586 00000-0 33030-3 0 9990 2 43790 97.4428 90.7457 0012907 78.7868 281.4812 15.11787886392602 ESEO 1 43792U 18099AL 26037.64851213 .00002823 00000-0 20934-3 0 9996 2 43792 97.4173 80.5383 0013643 63.3181 296.9440 15.03784838392188 JO-97 1 43803U 18099AX 26037.67942263 .00020876 00000-0 73982-3 0 9997 2 43803 97.4315 100.3725 0006414 25.5791 334.5765 15.29108738393654 Suomi 100 1 43804U 18099AY 26037.65714784 .00016834 00000-0 67352-3 0 9994 2 43804 97.4385 98.7212 0011060 28.0980 332.0852 15.25097425393504 ISAT 1 43879U 18111D 26037.78321659 .00059727 00000-0 11594-2 0 9994 2 43879 97.5906 324.9471 0008767 68.5425 291.6758 15.47413341390897 UWE-4 1 43880U 18111E 26037.72342420 .00034397 00000-0 92042-3 0 9993 2 43880 97.5856 320.9419 0011939 76.8215 283.4360 15.37895966390675 Sparrow 1 43881U 18111F 26037.86677668 .00065917 00000-0 11492-2 0 9995 2 43881 97.6107 329.1669 0008132 93.1052 267.1129 15.50471738391042 Prox-1 1 44339U 19036A 26037.03795150 .00021208 00000-0 22764-2 0 9996 2 44339 23.9950 268.0259 0007003 320.3333 39.6653 14.87023021353902 Taurus 1 1 44530U 19059C 26037.87071758 .00012041 00000-0 20000-2 0 9993 2 44530 98.6263 194.8776 0008336 0.2297 359.8909 14.70283716339483 TO-108 1 44881U 19093C 26037.85202036 .00001266 00000-0 14972-3 0 9992 2 44881 97.7670 113.2111 0014151 150.2134 209.9890 14.86268755332053 FloripaSat 1 1 44885U 19093G 26037.81491597 .00009228 00000-0 70351-3 0 9993 2 44885 97.7890 131.2686 0011856 148.1414 212.0530 15.02208810333067 RS-44 1 44909U 19096E 26037.60105656 .00000009 00000-0 -14953-4 0 9994 2 44909 82.5173 66.4833 0218670 89.7293 272.8862 12.79746877285644 SALSAT 1 46495U 20068K 26037.56368961 .00011530 00000-0 43021-3 0 9999 2 46495 97.8835 32.9107 0011714 48.2805 311.9433 15.27522863295408 CSS (TIANHE-1) 1 48274U 21035A 26037.47343961 .00022506 00000-0 28124-3 0 9996 2 48274 41.4680 37.9008 0005397 13.3696 346.7284 15.59287012272734 CUTE 1 49263U 21088D 26037.73761114 .00039925 00000-0 42315-3 0 9997 2 49263 97.4266 128.2740 0004469 69.9522 290.2218 15.64008976242031 TeikyoSat 4 1 49396U 21102B 26037.64258916 .00003517 00000-0 22618-3 0 9994 2 49396 97.3837 72.1344 0012903 29.1590 331.0357 15.08962137233037 Z-Sat 1 49399U 21102E 26037.85378362 .00005268 00000-0 26824-3 0 9996 2 49399 97.3506 77.1111 0016693 347.7014 12.3810 15.17097896233674 KOSEN 1 1 49402U 21102H 26037.63908574 .00010017 00000-0 40621-3 0 9990 2 49402 97.3386 82.3833 0012943 313.5125 46.5037 15.24749049234114 HO-113 1 50466U 21131B 26037.81800863 .00000906 00000-0 29419-3 0 9994 2 50466 98.4994 130.9470 0005061 122.7757 237.3920 14.41209128216336 SNUGLITE 2 1 52899U 22065F 26037.37066782 .00001805 00000-0 35317-3 0 9991 2 52899 98.1975 182.6121 0008556 77.4381 282.7777 14.64039147191852 UmKA 1 (RS40S) 1 57172U 23091G 26037.81562427 .00008487 00000-0 40651-3 0 9996 2 57172 97.5242 97.0463 0012536 208.6085 151.4463 15.19120643144205 CubeBel-2 (EU11S) 1 57175U 23091K 26037.82649387 .00015021 00000-0 58888-3 0 9994 2 57175 97.5237 100.0812 0009964 208.4299 151.6396 15.25817728144404 RS-38S 1 57189U 23091Z 26037.87139700 .00030272 00000-0 99167-3 0 9997 2 57189 97.5259 105.0720 0008254 167.7662 192.3781 15.31573488144711 SONATE-2 1 59112U 24043Q 26036.96234896 .00043281 00000-0 80026-3 0 9992 2 59112 97.5360 180.4379 0008229 328.0393 32.0357 15.48897459107515 MO-122 1 60209U 24125G 26037.56114729 .00045488 00000-0 78433-3 0 9991 2 60209 97.2482 253.1342 0013187 346.5954 13.4945 15.50813136 89249 GRBBeta 1 60237U 24128C 26037.75806328 .00006357 00000-0 44109-3 0 9994 2 60237 61.9915 313.4898 0053887 107.9118 252.7861 15.05427734 86626 Curium One 1 60242U 24128H 26037.83762777 .00011899 00000-0 71323-3 0 9993 2 60242 61.9801 306.6740 0053997 104.7171 255.9917 15.10144597 86752 ROBUSTA-3A 1 60243U 24128J 26037.86679398 .00012527 00000-0 76424-3 0 9999 2 60243 61.9877 308.3650 0054222 102.2202 258.4972 15.09458236 86738 CatSat 1 60246U 24125J 26037.57797676 .00050172 00000-0 10181-2 0 9992 2 60246 97.2248 249.5396 0029010 306.1345 53.7220 15.45740606 87130 HYPERVIEW-1G (RS66S) 1 61772U 24199AP 26037.88500990 .00092829 00000-0 14205-2 0 9999 2 61772 97.3141 273.2395 0010812 42.3647 317.8439 15.53986846114319 AO-123 1 61781U 24199AY 26037.88644613 .00015742 00000-0 48781-3 0 9996 2 61781 97.3196 267.7620 0015809 58.8265 301.4525 15.33396543113947 HADES-R (SO-124) 1 62690U 25009CK 26032.99082617 .05625566 23964-5 28010-2 0 9991 2 62690 97.3531 123.7793 0009683 299.0009 61.0309 16.20765875 58841 HYDRA-T 1 62692U 25009CM 26028.19742799 .10589489 24473-5 20739-2 0 9999 2 62692 97.3569 119.0624 0010828 297.3030 62.7162 16.31546071 58115 JINJUSat 1B 1 63210U 25052A 26037.65430220 .00022316 00000-0 79386-3 0 9996 2 63210 97.4158 294.5400 0003573 155.7173 204.4236 15.28982715 50126 NUSHSAT 1 1 63211U 25052B 26037.66966825 .00027023 00000-0 91788-3 0 9993 2 63211 97.4138 294.7682 0003372 157.3564 202.7826 15.30452002 50140 TEVEL2-4 1 63213U 25052D 26037.69832002 .00023931 00000-0 83540-3 0 9998 2 63213 97.4058 294.2254 0002172 160.8404 199.2918 15.29589533 50131 TEVEL2-5 1 63214U 25052E 26037.64158219 .00024192 00000-0 84723-3 0 9999 2 63214 97.4062 294.1475 0002053 162.3482 197.7830 15.29482571 50121 TEVEL2-6 1 63215U 25052F 26037.65054984 .00024128 00000-0 84612-3 0 9991 2 63215 97.4061 294.1429 0002112 166.2556 193.8742 15.29438214 50125 TEVEL2-1 1 63217U 25052H 26037.70611583 .00023207 00000-0 82361-3 0 9999 2 63217 97.4036 293.9600 0001637 183.0015 177.1215 15.29056940 50127 TEVEL2-3 1 63218U 25052J 26037.70435823 .00023404 00000-0 82974-3 0 9990 2 63218 97.4035 293.9677 0001594 181.8488 178.2747 15.29088607 50120 TEVEL2-2 1 63219U 25052K 26037.64136559 .00023544 00000-0 83549-3 0 9992 2 63219 97.4041 293.8962 0001545 183.7689 176.3539 15.29056820 50113 TEVEL2-9 1 63237U 25052AD 26037.59591267 .00022572 00000-0 84168-3 0 9995 2 63237 97.4097 293.4737 0004643 239.9340 120.1439 15.27427447 50065 TEVEL2-7 1 63238U 25052AE 26037.68158857 .00021506 00000-0 80673-3 0 9993 2 63238 97.4096 293.5200 0004802 236.4013 123.6768 15.27239296 50074 TEVEL2-8 1 63239U 25052AF 26037.68814450 .00021450 00000-0 80524-3 0 9995 2 63239 97.4097 293.5077 0004755 238.5632 121.5143 15.27214827 50072 HYDRA-W 1 63490U 25052BL 26037.73680816 .00146089 00000-0 23008-2 0 9996 2 63490 97.3997 297.7317 0003878 189.0905 171.0278 15.53048815 50373 HADES-ICM (SO-125) 1 63492U 25052BN 26036.66560114 .00141387 00000-0 25651-2 0 9999 2 63492 97.4003 296.1435 0003805 209.7437 150.3598 15.49070261 50176 Dragonfly 1 65729U 98067XH 26031.05194254 .08662331 12285-4 96629-3 0 9997 2 65729 51.6000 237.6139 0006569 265.0285 94.9990 16.36242872 20999 RSP-03 1 65732U 98067XL 26037.72735522 .00753541 26934-3 14853-2 0 9999 2 65732 51.6170 206.5302 0006539 284.0297 75.9985 15.99425235 22011 BOTAN 1 65942U 98067XP 26037.50565475 .00357545 00000-0 15696-2 0 9999 2 65942 51.6185 214.1233 0005759 263.2850 96.7497 15.83051988 18630 CEVROSAT1 1 66309U 25248S 26036.53636853 .00008016 00000-0 39020-3 0 9993 2 66309 45.4051 106.8099 0002584 356.9381 3.1488 15.18902372 14481 SPIRONE 1 66657U 25274H 26037.78682740 .00003673 00000-0 35936-3 0 9998 2 66657 97.7422 329.0563 0013875 87.9238 272.3570 14.92865225 10766 K-HERO 1 66660U 25274L 26037.76289155 .00004084 00000-0 39395-3 0 9993 2 66660 97.7434 329.0933 0015999 92.1144 268.1908 14.93340957 10766 SNUGLITE-III DURI 1 66661U 25274M 26037.75672862 .00004153 00000-0 39940-3 0 9997 2 66661 97.7430 329.0988 0016597 93.3039 267.0080 14.93443703 10766 SilverSat 1 66909U 98067XV 26037.71391802 .00138156 00000-0 14992-2 0 9990 2 66909 51.6272 222.3150 0002550 223.1841 136.8954 15.62543187 10338 SAKHACUBE-CHOLBON 1 67290U 25313AU 26037.79292262 .00013296 00000-0 58141-3 0 9998 2 67290 97.4062 114.6408 0011106 94.9371 265.3134 15.22143761 6125 QMR-KWT 1 67291U 25313AV 26037.78981141 .00017864 00000-0 77281-3 0 9990 2 67291 97.4061 114.6448 0010805 94.6635 265.5835 15.22446751 6129 IO-86 1 40931U 25360.30710720 .00000000 00000-0 12800-3 0 00 2 40931 6.0006 332.5373 0012733 338.8432 8.1437 14.79075515 01